Terminal Aerodrome Forecast
Issued by NWS Denver/Boulder, CO

Home | Current Version | Previous Version | Text Only | Print | Product List | Glossary On
Versions: 1 2 3 4 5 6 7 8 9 10 11 12 13 14 15 16 17 18 19 20 21 22 23 24 25 26 27 28 29 30 31 32 33 34 35 36 37 38 39 40 41 42 43 44 45 46 47 48 49 50
000
FTUS45 KBOU 040302 AAA
TAFDEN
TAF AMD
KDEN 040302Z 0403/0506 31005KT P6SM SKC
     FM040500 22011KT P6SM SKC
     FM041500 VRB06KT P6SM SKC
     FM041800 10010KT P6SM FEW080
     FM050300 19008KT P6SM FEW100=

USA.gov is the U.S. government's official web portal to all federal, state and local government web resources and services.